Wind_Speed
18 15 15 14 14 15 15 15 16 18 19 20 19 17 15 13 12 13 12 12 12 10 11 12 14 14 14 14 18 19 14 6 6 5 8 5 3 9 10 10 12 14 14 15 18
20 19 18 17 17 16 15 16 16 17 19 19 19 18 15 12 11 10 10 10 10 8 10 10 13 13 15 17 21 17 16 12 14 7 4 4 6 9 9 11 13 14 15 15 17
24 21 18 19 18 18 16 16 17 17 19 19 18 17 15 12 9 8 8 8 8 7 9 9 10 11 13 16 18 10 4 9 8 8 6 4 9 9 8 7 15 17 17 15 17
25 23 20 19 18 19 19 17 18 18 19 19 18 17 15 13 10 7 6 6 7 6 8 10 8 9 11 16 16 12 12 8 7 4 5 5 4 4 10 6 13 16 18 18 18
27 25 22 19 20 20 20 20 19 19 19 19 19 18 16 14 11 8 6 5 6 6 6 9 9 10 11 14 14 12 10 6 5 3 2 5 7 8 9 15 17 19 18 18 21
29 28 26 23 22 21 20 20 21 21 20 20 19 18 16 14 12 10 8 7 7 8 8 8 9 10 9 10 12 11 8 7 6 4 4 7 5 8 11 15 19 22 19 19 21
32 30 27 26 24 21 21 22 21 21 21 21 20 19 17 15 14 13 12 10 9 10 10 10 10 10 10 10 9 8 6 3 1 0 3 8 7 12 9 12 17 21 20 20 23
34 31 29 28 25 23 22 20 20 21 22 21 21 20 17 17 16 15 14 12 11 11 13 12 11 11 8 8 7 6 4 3 10 6 2 8 8 12 11 12 16 19 19 19 22
34 34 31 29 28 26 24 23 22 21 20 21 22 20 18 18 17 16 16 15 13 13 15 15 13 11 10 7 4 8 7 6 13 7 6 1 3 13 14 15 18 18 20 19 20
34 34 34 31 29 27 26 24 23 21 22 22 22 20 21 18 17 18 17 16 15 14 14 15 15 13 11 9 4 9 9 10 15 9 7 6 7 8 14 16 16 17 19 18 19
35 34 35 34 31 29 27 26 25 24 23 23 21 22 20 20 20 19 18 17 16 15 14 15 16 13 12 15 14 13 16 14 12 13 9 8 8 9 15 18 18 17 17 15 15
37 35 35 34 33 33 30 29 27 25 25 25 24 22 22 21 20 20 19 18 17 17 16 15 16 21 13 14 13 13 12 10 13 14 10 11 11 13 15 16 17 19 14 15 13
42 40 36 34 34 35 34 31 29 26 26 27 26 24 24 22 21 20 20 20 19 18 18 17 20 16 17 15 14 13 11 10 10 11 11 12 14 14 18 17 16 16 18 16 17
43 44 41 37 35 35 35 33 30 28 27 28 27 27 25 24 23 22 22 20 19 18 19 20 21 17 16 15 14 6 15 14 13 12 3 15 9 20 14 26 18 19 19 19 19
38 43 44 42 38 36 34 34 33 29 25 32 29 24 25 24 26 24 23 20 19 20 18 20 19 18 17 17 16 17 14 16 16 15 15 12 11 9 21 17 13 23 20 20 20
32 38 41 43 41 39 36 34 34 33 29 31 27 27 26 27 25 26 24 22 21 18 19 20 19 20 20 19 18 20 16 16 16 15 14 14 13 7 11 21 25 24 21 20 21
25 29 32 35 34 36 36 34 34 38 34 32 28 27 26 26 27 26 24 24 21 19 18 19 19 20 20 19 19 19 17 13 12 12 15 17 21 15 21 27 22 20 18 20 19
23 24 28 30 31 34 36 37 38 34 23 38 30 27 29 28 28 26 26 24 23 21 13 16 15 20 20 19 19 19 17 15 14 12 16 15 17 14 22 22 19 17 17 18 14
25 26 26 28 31 31 32 35 32 31 36 34 31 27 30 30 30 29 27 25 23 22 19 12 15 24 18 18 17 13 18 15 19 19 21 19 20 16 25 16 14 13 14 12 14
29 28 28 29 30 31 32 29 31 37 34 33 32 31 28 29 30 30 28 26 24 25 22 18 17 22 23 20 21 21 22 16 16 16 18 17 20 14 23 10 15 14 12 14 16
31 32 31 31 32 34 30 30 33 31 33 34 35 33 29 24 27 24 24 30 26 26 25 22 22 15 26 21 16 20 21 21 18 16 19 19 11 11 19 14 16 14 12 10 12
34 35 35 35 35 33 35 34 35 32 31 30 31 31 36 34 32 27 22 24 30 29 26 24 23 23 20 13 20 22 16 16 16 14 17 21 26 22 10 20 17 13 9 10 11
35 35 36 37 38 38 40 40 34 35 34 34 36 37 38 33 30 31 30 37 27 28 27 26 26 24 20 18 24 21 21 21 18 22 17 6 12 25 19 19 17 14 11 9 11
34 34 37 39 42 40 43 42 39 40 39 40 40 37 34 36 36 39 38 39 31 31 28 26 26 27 17 16 17 16 13 16 17 18 15 13 12 23 11 12 18 13 12 13 12
37 38 35 37 40 42 43 40 41 43 43 42 41 40 37 36 37 37 36 36 32 31 29 30 27 28 24 27 16 16 13 13 19 19 21 17 31 20 19 21 19 14 10 13 13
37 38 37 39 36 37 40 41 39 41 42 42 42 42 44 40 38 38 38 38 35 34 32 30 27 27 28 22 22 22 20 21 16 19 18 15 20 23 17 19 16 15 16 16 15
35 37 38 40 37 37 40 42 42 45 40 43 43 45 43 44 48 45 39 38 38 33 30 31 28 28 28 19 16 23 20 19 18 18 18 19 18 21 22 19 18 17 14 12 13
Wind_Direction
221 225 224 216 207 205 190 188 180 174 171 169 165 160 158 147 139 126 122 125 130 131 128 136 125 123 126 124 114 106 112 132 137 130 67 32 69 357 19 14 15 11 13 12 25
226 229 221 219 208 205 196 191 189 181 177 174 171 169 166 156 154 137 128 127 122 125 128 139 145 134 128 128 123 121 151 168 185 153 135 47 38 345 14 5 6 1 4 4 22
229 232 224 218 214 206 202 195 194 189 184 182 178 179 172 164 167 147 143 137 132 131 133 144 154 153 144 146 142 118 133 183 161 139 101 58 15 323 352 334 334 348 354 359 13
231 231 223 220 216 212 205 203 199 195 191 188 186 189 180 176 182 165 165 154 141 142 140 150 157 160 163 154 160 149 174 181 169 133 86 47 332 13 324 291 331 342 352 350 357
226 228 224 218 217 216 209 206 206 206 200 197 192 197 193 190 187 193 198 185 168 166 167 156 161 169 171 174 181 186 179 177 164 115 76 42 13 325 327 332 336 336 346 348 353
225 225 219 221 218 216 212 212 211 210 207 207 206 206 206 206 202 207 212 214 193 185 191 175 178 182 179 181 190 190 190 169 165 111 65 33 28 355 335 339 327 335 342 347 345
226 225 219 220 219 217 214 211 214 214 214 213 214 215 214 214 217 219 220 219 209 201 206 197 192 195 194 183 185 198 204 154 111 43 62 55 332 319 337 343 324 331 344 339 340
226 226 223 220 218 216 218 219 218 215 217 216 217 219 219 219 221 222 222 220 218 213 211 215 207 204 197 189 193 229 249 282 256 277 302 95 341 306 341 337 330 336 341 338 336
225 226 226 222 219 216 217 218 219 222 225 223 221 218 219 219 218 222 224 221 220 219 218 214 215 212 199 195 205 266 242 266 243 256 280 299 258 325 338 335 327 332 338 343 336
227 226 226 226 222 219 217 217 218 218 224 225 224 223 222 222 219 222 224 223 222 220 219 218 215 215 213 194 159 220 262 241 249 266 292 315 306 310 325 321 319 332 333 336 332
226 227 226 226 225 225 221 217 218 220 223 229 231 231 227 225 226 225 223 226 225 224 221 221 215 219 219 217 220 222 231 230 249 263 283 301 303 320 311 320 327 334 342 339 331
227 227 226 226 226 226 226 223 221 222 224 227 227 228 228 227 226 227 225 225 223 223 222 219 217 225 226 227 232 236 243 257 256 265 289 299 310 307 310 324 332 333 337 327 318
228 227 227 223 225 225 227 227 226 225 227 229 228 226 226 226 227 226 227 225 223 222 220 205 228 230 225 230 234 238 242 245 253 280 290 291 327 308 309 324 329 320 324 322 318
228 227 229 225 223 224 225 225 226 227 229 233 229 226 225 225 226 226 227 225 223 220 222 218 234 227 226 228 227 229 245 257 262 267 293 280 296 307 290 315 323 321 322 318 312
229 227 226 228 224 224 224 224 224 224 228 239 227 226 225 225 226 223 224 221 220 220 219 229 228 232 230 233 235 232 247 250 256 262 271 288 286 287 303 310 283 319 317 310 306
227 225 225 226 225 225 224 223 222 221 218 232 229 225 223 223 222 224 222 220 221 221 220 235 232 234 238 240 243 253 257 260 265 274 279 282 254 291 251 257 302 309 309 300 300
222 216 217 220 221 221 221 221 222 219 223 235 231 223 221 222 222 220 221 221 221 225 230 237 237 239 243 246 249 254 258 270 282 277 291 261 282 274 261 283 294 297 301 291 295
220 215 215 216 214 217 218 218 219 217 225 224 224 221 219 219 221 218 220 217 216 220 215 243 255 255 246 248 256 261 256 250 255 257 285 291 289 276 271 294 290 300 291 289 285
221 215 214 213 213 213 214 217 220 219 217 221 221 219 217 221 216 219 222 225 227 228 225 235 227 250 250 250 252 272 255 260 259 265 269 270 270 289 297 304 294 308 298 288 283
219 219 216 212 210 211 212 208 208 218 220 219 216 217 217 220 221 224 225 226 226 229 221 225 216 259 256 256 258 255 259 267 270 259 259 266 248 261 277 301 296 313 281 270 285
219 219 219 213 214 212 210 209 219 214 214 212 211 211 209 218 220 225 221 226 221 229 227 230 238 246 266 261 250 267 259 254 242 241 250 266 268 170 240 275 287 308 296 284 290
219 220 217 217 216 213 210 213 214 206 209 210 214 218 215 216 216 212 215 231 217 224 230 234 242 239 254 270 250 249 240 256 240 261 251 255 273 316 268 291 288 314 310 302 314
221 218 219 218 217 216 215 218 215 216 218 216 218 219 224 221 228 218 222 233 222 228 233 236 245 253 251 251 280 271 261 245 239 219 236 245 254 223 241 263 285 303 308 318 317
221 219 218 218 222 222 222 223 224 224 224 224 225 223 223 226 222 227 227 233 233 234 235 246 248 250 222 268 237 256 273 239 242 232 241 250 240 287 291 258 279 293 299 291 306
219 221 219 220 222 221 222 224 227 228 227 224 229 225 225 225 225 226 228 234 234 238 241 248 253 255 243 224 244 242 250 266 244 243 224 235 261 212 219 256 279 268 280 281 283
220 219 219 223 224 223 223 223 225 228 224 227 228 223 224 225 226 228 228 234 238 238 243 249 255 249 244 235 240 247 249 237 231 249 236 250 284 302 309 256 268 267 277 271 266
223 221 220 222 222 222 224 224 223 227 222 223 222 221 224 225 223 227 229 234 242 245 248 250 247 248 250 240 249 254 250 245 242 242 236 248 255 248 261 262 280 280 272 259 264
Height
5885 5887 5890 5891 5894 5897 5897 5899 5901 5903 5906 5908 5910 5913 5915 5915 5916 5918 5920 5921 5922 5924 5925 5927 5929 5930 5931 5932 5933 5936 5941 5943 5943 5944 5944 5939 5940 5933 5931 5929 5927 5925 5923 5919 5916
5883 5886 5889 5891 5893 5896 5897 5899 5901 5903 5906 5908 5910 5913 5915 5916 5917 5918 5921 5922 5923 5924 5926 5928 5929 5931 5932 5934 5935 5935 5931 5939 5939 5938 5938 5937 5936 5934 5932 5930 5927 5925 5923 5920 5917
5881 5884 5886 5889 5892 5894 5895 5898 5900 5903 5905 5908 5910 5913 5914 5915 5918 5918 5921 5923 5924 5925 5926 5928 5930 5931 5933 5934 5937 5938 5931 5937 5937 5937 5937 5938 5940 5935 5935 5930 5929 5925 5923 5921 5918
5878 5882 5884 5887 5890 5893 5894 5897 5899 5902 5904 5906 5909 5912 5913 5914 5918 5918 5920 5923 5924 5925 5927 5928 5930 5931 5933 5934 5935 5936 5937 5938 5937 5937 5937 5937 5936 5938 5934 5935 5929 5925 5923 5920 5918
5876 5879 5881 5885 5888 5890 5892 5895 5898 5901 5903 5905 5908 5911 5912 5914 5916 5917 5919 5922 5924 5925 5927 5928 5929 5931 5932 5934 5935 5935 5937 5938 5938 5938 5937 5937 5936 5935 5934 5931 5928 5925 5923 5921 5918
5872 5876 5879 5882 5885 5888 5891 5893 5896 5899 5902 5904 5907 5909 5911 5913 5914 5916 5918 5921 5923 5925 5927 5928 5929 5930 5932 5934 5935 5935 5937 5937 5937 5938 5938 5937 5936 5935 5933 5930 5927 5925 5923 5920 5917
5868 5871 5875 5879 5882 5885 5888 5891 5894 5896 5899 5902 5905 5907 5909 5912 5913 5916 5917 5920 5922 5923 5925 5926 5928 5930 5931 5933 5934 5935 5936 5937 5938 5938 5938 5937 5936 5935 5932 5929 5927 5925 5924 5920 5917
5863 5867 5871 5875 5879 5882 5885 5888 5891 5894 5897 5899 5902 5905 5907 5909 5911 5914 5916 5918 5920 5922 5923 5925 5927 5928 5930 5932 5934 5934 5936 5940 5944 5938 5937 5938 5940 5935 5931 5928 5926 5925 5923 5921 5917
5858 5862 5866 5871 5875 5878 5881 5885 5888 5891 5894 5897 5900 5902 5906 5907 5909 5911 5914 5916 5917 5919 5921 5923 5926 5928 5930 5932 5934 5935 5939 5942 5943 5937 5936 5936 5937 5932 5930 5927 5925 5924 5922 5920 5917
5852 5856 5861 5865 5870 5874 5878 5881 5885 5888 5891 5894 5897 5900 5903 5905 5907 5910 5912 5913 5915 5917 5919 5922 5924 5927 5929 5931 5937 5941 5940 5940 5937 5937 5934 5934 5936 5934 5930 5927 5925 5923 5921 5919 5915
5846 5851 5855 5860 5865 5869 5874 5878 5882 5884 5887 5890 5894 5895 5898 5901 5904 5907 5909 5911 5913 5916 5917 5919 5923 5925 5929 5929 5929 5932 5932 5933 5934 5933 5933 5932 5933 5931 5929 5926 5923 5921 5920 5916 5912
5840 5845 5850 5854 5859 5864 5868 5872 5877 5881 5883 5886 5889 5893 5895 5898 5902 5904 5906 5909 5911 5913 5915 5919 5921 5921 5924 5926 5927 5928 5930 5931 5931 5931 5931 5931 5930 5929 5927 5925 5922 5919 5917 5914 5910
5832 5838 5844 5849 5854 5858 5863 5868 5872 5875 5879 5882 5885 5888 5892 5895 5898 5901 5903 5906 5908 5911 5913 5916 5917 5919 5921 5923 5925 5927 5927 5929 5929 5929 5930 5929 5928 5925 5924 5923 5921 5918 5915 5912 5908
5824 5830 5837 5843 5849 5852 5857 5862 5867 5871 5874 5877 5880 5883 5887 5890 5894 5897 5900 5904 5906 5909 5911 5913 5914 5916 5919 5921 5923 5924 5924 5925 5926 5927 5932 5928 5930 5926 5924 5919 5918 5916 5913 5910 5906
5815 5821 5828 5835 5842 5846 5852 5857 5862 5867 5872 5870 5874 5880 5883 5888 5890 5894 5897 5900 5903 5905 5909 5910 5912 5914 5916 5918 5920 5922 5923 5923 5924 5925 5925 5927 5928 5930 5924 5919 5917 5913 5911 5907 5904
5807 5813 5820 5827 5834 5840 5845 5851 5856 5863 5866 5864 5869 5874 5879 5882 5886 5889 5894 5897 5899 5902 5905 5906 5909 5911 5913 5915 5917 5918 5920 5921 5921 5922 5924 5925 5925 5927 5925 5917 5914 5910 5908 5905 5901
5803 5807 5813 5819 5828 5833 5839 5845 5851 5854 5859 5861 5866 5870 5875 5878 5882 5886 5890 5893 5897 5900 5903 5904 5906 5908 5911 5913 5914 5916 5917 5920 5923 5923 5922 5917 5919 5921 5917 5912 5911 5908 5905 5901 5899
5800 5804 5808 5814 5820 5826 5832 5838 5842 5851 5854 5855 5863 5867 5871 5874 5878 5882 5886 5889 5892 5897 5900 5902 5905 5905 5907 5909 5911 5911 5914 5917 5919 5921 5918 5911 5915 5913 5908 5907 5905 5904 5901 5898 5897
5796 5800 5804 5809 5815 5820 5825 5829 5839 5845 5842 5854 5858 5862 5867 5870 5874 5877 5882 5886 5889 5893 5897 5902 5903 5900 5903 5905 5907 5908 5909 5912 5912 5913 5914 5914 5913 5907 5903 5903 5901 5900 5898 5896 5896
5791 5795 5800 5805 5810 5815 5819 5827 5830 5833 5843 5848 5854 5858 5862 5866 5870 5873 5877 5881 5884 5887 5891 5895 5897 5896 5897 5900 5901 5902 5905 5907 5907 5909 5909 5911 5907 5907 5900 5901 5896 5897 5896 5895 5894
5785 5789 5795 5800 5804 5809 5816 5822 5825 5831 5836 5842 5846 5852 5857 5861 5865 5869 5874 5875 5880 5883 5886 5889 5892 5896 5892 5895 5897 5897 5898 5900 5903 5907 5905 5905 5894 5897 5897 5898 5895 5894 5893 5892 5892
5778 5782 5787 5793 5799 5805 5810 5816 5818 5826 5830 5836 5841 5845 5850 5854 5860 5865 5870 5871 5873 5877 5881 5885 5887 5889 5890 5892 5890 5892 5895 5896 5898 5901 5900 5899 5896 5894 5894 5892 5893 5891 5891 5890 5890
5770 5776 5780 5786 5792 5798 5803 5807 5813 5820 5825 5830 5835 5841 5846 5851 5855 5859 5863 5859 5870 5873 5875 5878 5881 5883 5886 5889 5884 5886 5888 5889 5891 5892 5893 5893 5899 5887 5889 5891 5890 5889 5889 5889 5888
5764 5769 5773 5778 5783 5790 5795 5801 5806 5811 5817 5822 5826 5833 5840 5843 5848 5852 5856 5858 5864 5865 5869 5872 5874 5877 5885 5879 5880 5880 5882 5884 5886 5888 5891 5893 5896 5891 5887 5885 5886 5886 5887 5887 5886
5756 5759 5766 5771 5776 5781 5786 5793 5798 5803 5809 5814 5819 5827 5831 5836 5840 5845 5849 5850 5856 5859 5862 5864 5867 5870 5873 5876 5879 5880 5882 5883 5883 5883 5884 5889 5880 5876 5877 5882 5881 5883 5884 5883 5883
5748 5753 5758 5762 5769 5775 5779 5785 5791 5794 5800 5806 5811 5817 5822 5828 5834 5838 5838 5845 5848 5851 5854 5857 5861 5862 5864 5869 5873 5874 5875 5877 5880 5880 5880 5882 5876 5867 5865 5877 5878 5878 5879 5879 5879
5740 5745 5750 5754 5761 5766 5770 5775 5781 5783 5792 5795 5801 5807 5815 5818 5818 5824 5833 5838 5840 5845 5848 5851 5855 5856 5859 5863 5869 5870 5870 5872 5874 5877 5878 5879 5879 5874 5870 5870 5872 5873 5875 5875 5876